Starlink 33636

operational
NORAD ID: 63379 Int'l Des: 2025-063 Owner: SPXS Country: US Constellation: starlink
LEOCIRCULAR

Über Starlink 33636

Beschreibung wird geladen...

Live-Position

3D-Globus wird geladen...

Nächste Überflüge

Höhenverlauf

Altitude vs Time

uPlot chart will show altitude changes over time

Zweizeiliger Elementsatz

1 63379U 25063S 25258.43028460 .00123999 00000-0 30497-2 0 9991
2 63379 53.1570 147.4352 0001096 97.1085 263.0044 15.39720668 27862
Epoch: 15. Sept. 2025 • Age: 17 hours

Aktueller Status

Höhe 448.4 km
Geschwindigkeit 7.64 km/s
Subsatellitenpunkt -5.35°S, 93.24°E
Startdatum 26. März 2025
Alter 0.4 years
Typ internet

Technische Details

Klassifizierung Payload
Masse 575.00 kg
Trockenmasse 530.00 kg
Gesamtmasse 575.00 kg
Länge 0.30 m
Durchmesser 4.10 m
Spannweite 29.00 m
Form Box + pan
Hersteller SPXS
Bus-Typ Starlink V2MO
Phasenstatus In Orbit
Besitzer/Staat SPXS/US

Große Konstellationen

Loading constellations...